[[{"header":{"parameterUnit":"m.s-1","parameterCategory":1,"la1":30.2991,"la2":30.254,"lo1":-89.0895,"lo2":-89.0444,"dy":0.0017,"dx":0.0017,"nx":28,"ny":28,"refTime":"2023-10-03T21:00:00:Z","depth":0,"parameterNumber":2,"parameterNumberName":"U-component_of_WINDS"},"data":[0,0,0,0,0,0,0,0,0,0,0,0,0,0,0,0,0,0,0,0,0,0,0,0,0,0,0,0,0,0,0,0,0,0,0,0,0,0,0,0,0,0,0,0,0,0,0,0,0,0,0,0,0,0,0,0,0,0,-5.0902,-5.0901,0,-5.0851,-5.085,-5.085,-5.0713,-5.071,-5.0707,-5.0704,-5.0654,-5.0655,-5.0657,0,0,0,0,0,0,0,0,0,0,0,0,0,-5.0886,-5.0887,-5.0902,-5.0901,-5.0901,-5.0851,-5.085,-5.085,-5.0714,-5.071,-5.0706,-5.0703,-5.0654,-5.0655,-5.0657,0,0,0,0,0,0,0,0,0,0,0,0,0,-5.087,-5.0887,-5.0902,-5.0827,-5.082,-5.0851,-5.085,-5.0849,-5.0714,-5.071,-5.0706,-5.0701,-5.0653,-5.0655,-5.0657,-5.0758,0,0,-5.0663,-5.0664,0,0,0,0,0,0,0,0,-5.0871,-5.0871,-5.0839,-5.0832,-5.0824,-5.0784,-5.0826,-5.0819,-5.0715,-5.0754,-5.0704,-5.0699,-5.0701,-5.0699,-5.0699,-5.0755,-5.0753,-5.0664,-5.0665,-5.0666,-5.0666,0,0,0,0,0,0,0,-5.0872,-5.0872,-5.0882,-5.0838,-5.0829,-5.0797,-5.079,-5.0824,-5.0753,-5.0751,-5.0741,-5.0736,-5.0696,-5.0697,-5.0697,-5.0753,-5.0664,-5.0665,-5.0667,-5.0667,-5.0891,-5.0896,0,0,0,0,0,0,-5.0884,-5.0874,-5.0883,-5.088,-5.0837,-5.0801,-5.0793,-5.0801,-5.0752,-5.074,-5.074,-5.073,-5.0696,-5.0694,-5.0694,-5.0809,-5.0666,-5.0668,-5.0669,-5.0887,-5.0892,-5.0898,0,0,0,0,0,0,-5.0884,-5.0886,-5.0885,-5.0874,-5.0872,-5.0806,-5.0816,-5.0803,-5.0803,-5.0744,-5.0731,-5.0754,-5.0692,-5.0691,-5.0743,-5.0806,-5.0669,-5.067,-5.0881,-5.0889,-5.0895,-5.104,0,0,0,0,0,0,-5.0884,-5.0887,-5.0923,-5.0876,-5.0873,-5.0934,-5.082,-5.0805,-5.0807,-5.0793,-5.0754,-5.0743,-5.0689,-5.0741,-5.0745,-5.0806,-5.0672,-5.0875,-5.0884,-5.0893,-5.103,-5.1051,-5.107,0,0,0,0,0,-5.0884,-5.0966,-5.0926,-5.0927,-5.0917,-5.0938,-5.0936,-5.0872,-5.0813,-5.0849,-5.0812,-5.0744,-5.0799,-5.0747,-5.0751,-5.0813,-5.0871,-5.0882,-5.0892,-5.102,-5.1047,-5.107,0,0,0,0,0,0,-5.1022,-5.0958,-5.0913,-5.0982,-5.0967,-5.0915,-5.0959,-5.0902,-5.0903,-5.089,-5.0811,-5.0803,-5.0867,-5.0845,-5.0789,-5.091,-5.0824,-5.0836,-5.092,-5.0945,-5.0965,-5.0968,-5.0674,0,0,0,0,0,-5.106,-5.1082,-5.1026,-5.1093,-5.1087,-5.1026,-5.1032,-5.0984,-5.0965,-5.0958,-5.0924,-5.0909,-5.0923,-5.0933,-5.0942,-5.1027,-5.1017,-5.1072,-5.1093,-5.1109,-5.112,-5.1164,-5.1188,-5.0932,-5.0932,-5.0932,0,0,-5.114,-5.1108,-5.1126,-5.112,-5.1102,-5.1127,-5.102,-5.1051,-5.107,-5.0962,-5.1009,-5.0985,-5.0963,-5.1032,-5.1061,-5.1016,-5.1189,-5.1123,-5.1137,-5.1138,-5.1178,-5.1202,-5.1224,-5.0939,-5.0938,-5.0937,0,0,-5.1297,-5.1275,-5.1328,-5.1314,-5.1289,-5.1247,-5.1261,-5.1219,-5.1198,-5.1244,-5.1165,-5.1187,-5.1212,-5.12,-5.1197,-5.1355,-5.1293,-5.1361,-5.1466,-5.151,-5.153,-5.1547,-5.1603,-5.1625,-5.1372,-5.1372,-5.1373,0,-5.1398,-5.1432,-5.1363,-5.14,-5.14,-5.1305,-5.136,-5.1349,-5.1329,-5.1332,-5.1283,-5.1314,-5.1292,-5.1358,-5.1397,-5.1398,-5.1411,-5.1363,-5.1533,-5.1549,-5.1565,-5.1617,-5.1639,-5.1381,-5.138,-5.1379,-5.1378,0,-5.1559,-5.1584,-5.1631,-5.1614,-5.1619,-5.1665,-5.1604,-5.1619,-5.1572,-5.1537,-5.1586,-5.1558,-5.156,-5.1573,-5.1527,-5.1633,-5.1606,-5.1547,-5.1458,-5.1599,-5.1647,-5.1666,-5.1392,-5.1389,-5.1387,-5.1385,0,0,-5.1797,-5.1744,-5.1762,-5.1754,-5.1722,-5.174,-5.1784,-5.1786,-5.18,-5.1791,-5.1825,-5.1851,-5.1796,-5.1793,-5.1746,-5.1785,-5.1912,-5.172,-5.1718,-5.1756,-5.2028,-5.2072,-5.2096,-5.1872,-5.1876,-5.1879,-5.2029,0,-5.1944,-5.2012,-5.1954,-5.2033,-5.2057,-5.197,-5.2007,-5.1993,-5.1962,-5.1979,-5.1945,-5.1964,-5.189,-5.1888,-5.1924,-5.1889,-5.1965,-5.1878,-5.1903,-5.1905,-5.1909,-5.2121,-5.2167,-5.231,-5.2048,-5.2051,-5.2053,0,-5.2124,-5.2124,-5.2206,-5.2171,-5.2178,-5.2213,-5.2211,-5.2228,-5.2211,-5.2186,-5.2186,-5.2128,-5.2169,-5.2086,-5.2142,-5.2084,-5.2092,-5.2077,-5.2081,-5.2079,-5.1986,-5.2123,-5.2354,-5.2375,-5.2082,-5.208,-5.2078,0,-5.2289,-5.2309,-5.2361,-5.2357,-5.2317,-5.2344,-5.2329,-5.2307,-5.2313,-5.2314,-5.2317,-5.2323,-5.2325,-5.2331,-5.2278,-5.2222,-5.2341,-5.2253,-5.2322,-5.2324,-5.2348,-5.2347,-5.2582,-5.2357,-5.2357,-5.2357,-5.2356,0,-5.2458,-5.2512,-5.2435,-5.2466,-5.2525,-5.2459,-5.2519,-5.2495,-5.2477,-5.2504,-5.243,-5.2457,-5.2386,-5.2406,-5.2365,-5.2418,-5.242,-5.2402,-5.239,-5.2407,-5.241,-5.2409,-5.2397,-5.2362,-5.2361,-5.236,-5.2359,0,-5.265,-5.26,-5.2651,-5.2611,-5.2602,-5.2647,-5.2613,-5.2641,-5.2608,-5.2643,-5.2647,-5.2595,-5.2615,-5.2563,-5.2576,-5.2548,-5.2624,-5.2597,-5.263,-5.2621,-5.2693,-5.2686,-5.2934,-5.2963,-5.2722,-5.2724,-5.2726,0,-5.276,-5.2799,-5.2764,-5.2776,-5.2765,-5.2787,-5.2793,-5.2731,-5.2741,-5.2727,-5.2758,-5.2772,-5.2779,-5.2817,-5.278,-5.279,-5.2761,-5.2848,-5.2762,-5.2779,-5.2762,-5.2759,-5.2763,-5.2865,-5.2868,-5.287,-5.2872,0,-5.296,-5.2935,-5.2946,-5.2952,-5.2962,-5.2962,-5.2958,-5.2973,-5.2907,-5.2922,-5.2942,-5.2949,-5.2962,-5.2978,-5.298,-5.2965,-5.2909,-5.29,-5.2916,-5.2933,-5.295,-5.2941,-5.2676,-5.2894,-5.2891,-5.289,-5.2889,-5.2888,-5.3113,-5.3145,-5.3126,-5.3142,-5.3133,-5.3131,-5.3157,-5.3127,-5.3143,-5.3148,-5.3112,-5.314,-5.3125,-5.3122,-5.3114,-5.3136,-5.3097,-5.3121,-5.3126,-5.3133,-5.3144,-5.2949,-5.3137,-5.3136,-5.3136,-5.3135,-5.3134,0,-5.3309,-5.3293,-5.3309,-5.3306,-5.332,-5.3267,-5.326,-5.3275,-5.3301,-5.3291,-5.3301,-5.3326,-5.3341,-5.3308,-5.3318,-5.3343,-5.3317,-5.3348,-5.3344,-5.3342,-5.3179,-5.3163,-5.3368,-5.3368,-5.3368,-5.3368,-5.3368,-5.3368,-5.3412,-5.3463,-5.3436,-5.3483,-5.3467,-5.3494,-5.3495,-5.3494,-5.3486,-5.3516,-5.3529,-5.3507,-5.3489,-5.3498,-5.3511,-5.3501,-5.3507,-5.3547,-5.3528,-5.3376,-5.3353,-5.3331,-5.3316,-5.355,-5.355,-5.3688,-5.3689,-5.369]},{"header":{"parameterUnit":"m.s-1","parameterCategory":1,"la1":30.2991,"la2":30.254,"lo1":-89.0895,"lo2":-89.0444,"dy":0.0017,"dx":0.0017,"nx":28,"ny":28,"refTime":"2023-10-03T21:00:00:Z","depth":0,"parameterNumber":3,"parameterNumberName":"V-component_of_WINDS"},"data":[0,0,0,0,0,0,0,0,0,0,0,0,0,0,0,0,0,0,0,0,0,0,0,0,0,0,0,0,0,0,0,0,0,0,0,0,0,0,0,0,0,0,0,0,0,0,0,0,0,0,0,0,0,0,0,0,0,0,1.8305,1.8305,0,1.8304,1.8304,1.8304,1.8358,1.836,1.8361,1.8362,1.8354,1.8352,1.8351,0,0,0,0,0,0,0,0,0,0,0,0,0,1.8349,1.8348,1.8305,1.8305,1.8305,1.8304,1.8304,1.8304,1.8358,1.836,1.8361,1.8363,1.8354,1.8352,1.835,0,0,0,0,0,0,0,0,0,0,0,0,0,1.8337,1.8348,1.8305,1.8332,1.8335,1.8304,1.8304,1.8304,1.8358,1.836,1.8362,1.8364,1.8355,1.8353,1.835,1.8291,0,0,1.8343,1.8342,0,0,0,0,0,0,0,0,1.8337,1.8335,1.8328,1.833,1.8333,1.8334,1.8316,1.8299,1.8357,1.8349,1.8363,1.8365,1.8345,1.8343,1.8338,1.8291,1.8291,1.8343,1.8341,1.834,1.8339,0,0,0,0,0,0,0,1.8338,1.8336,1.8305,1.8328,1.8331,1.8343,1.8343,1.8313,1.8334,1.8349,1.8353,1.8353,1.8346,1.834,1.8338,1.829,1.8343,1.8341,1.8339,1.8338,1.8196,1.8194,0,0,0,0,0,0,1.8336,1.8336,1.8305,1.8305,1.8341,1.834,1.8341,1.8331,1.8335,1.8337,1.8351,1.8355,1.8343,1.8341,1.8338,1.827,1.834,1.8338,1.8337,1.8198,1.8196,1.8193,0,0,0,0,0,0,1.8337,1.8333,1.8305,1.8321,1.8319,1.8337,1.8326,1.833,1.8324,1.8336,1.8339,1.8341,1.8345,1.8341,1.8303,1.827,1.8337,1.8335,1.8201,1.8198,1.8194,1.8132,0,0,0,0,0,0,1.8338,1.8333,1.8312,1.8321,1.8318,1.8271,1.8324,1.8328,1.832,1.8326,1.8328,1.833,1.8346,1.8307,1.8301,1.8268,1.8333,1.8204,1.82,1.8195,1.8137,1.8127,1.8118,0,0,0,0,0,1.8339,1.8292,1.831,1.8306,1.8292,1.8269,1.8267,1.8289,1.8318,1.8296,1.8304,1.833,1.8275,1.8302,1.8296,1.8262,1.8206,1.8201,1.8196,1.8141,1.8129,1.8118,0,0,0,0,0,0,1.8276,1.8294,1.8314,1.8269,1.8268,1.8278,1.8251,1.8275,1.8264,1.8269,1.8295,1.8295,1.8252,1.8254,1.8283,1.8206,1.8246,1.8239,1.8206,1.8194,1.8185,1.8184,1.8331,0,0,0,0,0,1.8258,1.824,1.8256,1.8214,1.8213,1.8232,1.8223,1.8241,1.8239,1.8238,1.8243,1.8239,1.8221,1.8208,1.8192,1.8139,1.8139,1.8112,1.8103,1.8095,1.8088,1.806,1.8048,1.8176,1.8176,1.8176,0,0,1.8217,1.8225,1.8212,1.8202,1.8203,1.8182,1.8231,1.8206,1.8191,1.8233,1.8198,1.8202,1.8199,1.8153,1.8133,1.8153,1.8054,1.8088,1.8082,1.8079,1.8053,1.8041,1.803,1.8172,1.8173,1.8174,0,0,1.8134,1.8139,1.8105,1.8106,1.8108,1.8122,1.8114,1.8122,1.8127,1.8093,1.8125,1.8106,1.8074,1.8071,1.8065,1.7984,1.8007,1.7978,1.7927,1.7899,1.7889,1.788,1.785,1.7839,1.7971,1.7971,1.7971,0,1.8083,1.8055,1.8084,1.8058,1.8052,1.8094,1.8059,1.8058,1.8053,1.8047,1.8071,1.8034,1.8035,1.7989,1.7969,1.7963,1.7954,1.7976,1.7889,1.788,1.7872,1.7844,1.7833,1.7968,1.7968,1.7968,1.7969,0,1.7992,1.7972,1.7945,1.7943,1.7934,1.7904,1.7927,1.7914,1.7933,1.7944,1.7909,1.7912,1.7898,1.7889,1.7906,1.7846,1.7858,1.7885,1.7924,1.7856,1.783,1.7819,1.7962,1.7964,1.7965,1.7966,0,0,1.7865,1.7882,1.7871,1.7872,1.7878,1.7862,1.7834,1.7823,1.7812,1.7808,1.7784,1.7758,1.7784,1.7777,1.7795,1.7771,1.7705,1.78,1.7801,1.7781,1.7638,1.7617,1.7604,1.7722,1.772,1.7719,1.7638,0,1.7784,1.7738,1.7764,1.7714,1.7696,1.7736,1.7712,1.7712,1.7722,1.7707,1.7718,1.7699,1.7734,1.7731,1.7709,1.7718,1.7676,1.7724,1.7698,1.7696,1.7695,1.759,1.7567,1.749,1.7628,1.7626,1.7625,0,1.7681,1.7677,1.7625,1.7637,1.763,1.7608,1.7601,1.7586,1.7588,1.7597,1.7591,1.7615,1.7587,1.7629,1.7589,1.7621,1.7612,1.7615,1.7613,1.7609,1.7655,1.7582,1.7467,1.7454,1.7609,1.7611,1.7612,0,1.7593,1.7573,1.7541,1.7539,1.7552,1.7536,1.754,1.7544,1.7536,1.753,1.7525,1.7514,1.7507,1.7498,1.7518,1.7546,1.7475,1.7519,1.748,1.748,1.7461,1.7461,1.7341,1.7459,1.7459,1.7459,1.7459,0,1.7498,1.7464,1.7501,1.748,1.7444,1.7475,1.7438,1.7446,1.745,1.7431,1.7465,1.7446,1.7474,1.7458,1.7473,1.7438,1.7435,1.744,1.7444,1.7436,1.7435,1.7428,1.7433,1.7456,1.7457,1.7457,1.7458,0,1.7391,1.7415,1.7382,1.7398,1.7402,1.7374,1.7387,1.7368,1.7382,1.7357,1.7353,1.7374,1.7356,1.7377,1.7359,1.737,1.7322,1.7335,1.7322,1.7325,1.7285,1.7288,1.7154,1.7138,1.7268,1.7266,1.7265,0,1.7328,1.7304,1.7319,1.731,1.7313,1.7297,1.7291,1.732,1.7311,1.7313,1.7293,1.7279,1.7269,1.7239,1.7251,1.7239,1.725,1.7205,1.7248,1.7241,1.7248,1.7249,1.7246,1.7195,1.7193,1.7192,1.7191,0,1.7213,1.7227,1.7217,1.7211,1.7203,1.7199,1.7198,1.7188,1.7219,1.7207,1.7192,1.7184,1.7169,1.7154,1.7145,1.7148,1.7173,1.7178,1.7168,1.7158,1.7151,1.7153,1.7296,1.718,1.7181,1.7182,1.7182,1.7183,1.7125,1.7106,1.7114,1.7102,1.7106,1.7104,1.7087,1.7101,1.7089,1.708,1.7098,1.7077,1.708,1.7072,1.7072,1.7056,1.7075,1.7061,1.7057,1.7052,1.7046,1.7156,1.7054,1.7054,1.7055,1.7055,1.7055,0,1.7011,1.702,1.7009,1.7007,1.6998,1.7027,1.7028,1.7017,1.6999,1.7001,1.6992,1.6973,1.696,1.6973,1.6961,1.6945,1.6957,1.6941,1.6941,1.6941,1.703,1.7039,1.6932,1.6932,1.6932,1.6932,1.6932,1.6932,1.6951,1.692,1.6935,1.6905,1.6913,1.6895,1.6893,1.6892,1.6894,1.6872,1.6862,1.6872,1.6878,1.6868,1.6856,1.686,1.6854,1.6833,1.6841,1.6923,1.6935,1.6946,1.6955,1.6832,1.6832,1.6754,1.6753,1.6753]}]]